• Processing (Info)

  • MPEC 2005-N32 : 2005 NB7

    The following Minor Planet Electronic Circular may be linked-to from your own Web pages, but must not otherwise be redistributed electronically.

    A form allowing access to any MPEC is at the bottom of this page.


    Read MPEC 2005-N31 Read MPEC 2005-N33


    M.P.E.C. 2005-N32                                Issued 2005 July 6, 11:43 UT
    
         The Minor Planet Electronic Circulars contain information on unusual
             minor planets and routine data on comets.  They are published
       on behalf of Commission 20 of the International Astronomical Union by the
              Minor Planet Center, Smithsonian Astrophysical Observatory,
                              Cambridge, MA 02138, U.S.A.
    
                      Supported in part by the Brinson Foundation
                 Prepared using the Tamkin Foundation Computer Network
    
                                  MPC@CFA.HARVARD.EDU
              URL http://cfa-www.harvard.edu/iau/mpc.html  ISSN 1523-6714
    
                                       2005 NB7
    
    Observations:
         K05N07B* C2005 07 05.16712 13 36 59.94 +11 47 17.5          20.1 V EN032703
         K05N07B  C2005 07 05.17352 13 37 01.63 +11 47 09.5          19.9 V EN032703
         K05N07B  C2005 07 05.17997 13 37 03.36 +11 47 00.7          20.6 V EN032703
         K05N07B  C2005 07 05.20631 13 37 10.38 +11 46 24.7          19.6 V EN032G96
         K05N07B  C2005 07 05.20836 13 37 10.92 +11 46 21.9          20.2 V EN032G96
         K05N07B  C2005 07 05.21042 13 37 11.46 +11 46 18.7          20.0 V EN032G96
         K05N07B  C2005 07 05.21252 13 37 12.03 +11 46 15.9          20.1 V EN032G96
         K05N07B VC2005 07 05.92151 13 40 23.11 +11 30 03.8          20   R EN032204
         K05N07B  C2005 07 06.13005 13 41 19.17 +11 25 19.4          19.7 R EN032734
         K05N07B  C2005 07 06.13446 13 41 20.35 +11 25 14.2          20.3 R EN032734
         K05N07B  C2005 07 06.15954 13 41 26.91 +11 24 42.4          19.9 V EN032703
         K05N07B  C2005 07 06.16669 13 41 28.93 +11 24 31.8          20.2 V EN032703
         K05N07B  C2005 07 06.17388 13 41 30.73 +11 24 21.7          19.4 V EN032703
         K05N07B  C2005 07 06.18107 13 41 32.64 +11 24 12.6          20.3 V EN032703
         K05N07B  C2005 07 06.22924 13 41 45.32 +11 23 04.9          20.4 R EN032651
         K05N07B  C2005 07 06.23477 13 41 46.89 +11 22 56.6          20.4 R EN032651
         K05N07B  C2005 07 06.23698 13 41 47.43 +11 22 54.5          20.4 R EN032651
    
    Observer details:
    204 Schiaparelli Observatory.  Observer L. Buzzi.  0.60-m f/4.64 Newtonian
        reflector + CCD.
    651 Grasslands Observatory, Tucson.  Observer J. E. McGaha.  0.62-m f/5.1
        Newtonian reflector + CCD.
    703 Catalina Sky Survey.  Observer A. Odell.  Measurers E. C. Beshore,
        C. M. Casey, E. J. Christensen, G. J. Garradd, A. D. Grauer, R. E. Hill,
        S. M. Larson, R. H. McNaught.  0.68-m Schmidt + CCD.
    734 Farpoint Observatory.  Observer W. Leifer.  Measurer G. Hug.  0.7-m
        reflector + CCD.
    G96 Mt. Lemmon Survey.  Observer S. M. Larson.  Measurers E. C. Beshore,
        C. M. Casey, E. J. Christensen, G. J. Garradd, A. D. Grauer, R. E. Hill,
        S. M. Larson, R. H. McNaught.  1.5-m reflector + CCD.
    
    Orbital elements:
    2005 NB7                                                             PHA 0.013
    Epoch 2005 June 19.0 TT = JDT 2453540.5                 MPC
    M  12.23019              (2000.0)            P               Q
    n   0.28546771     Peri.  356.58670     -0.97286407     +0.22283209
    a   2.2843609      Node   196.69027     -0.20681622     -0.95820442
    e   0.5509660      Incl.   12.52852     -0.10374272     -0.17941615
    P   3.45           H   18.7           G   0.15
    From 17 observations 2005 July 5-6.
    
    Ephemeris:
    2005 NB7                 a,e,i = 2.28, 0.55, 13                  q = 1.0258
    Date    TT    R. A. (2000) Decl.     Delta      r     Elong.  Phase     V
    2005 06 29    13 07.92   +14 05.2    0.618    1.213    92.5    56.9    20.1
    2005 07 09    13 53.85   +10 19.8    0.685    1.278    95.3    52.4    20.3
    2005 07 19    14 33.76   +06 34.1    0.769    1.347    97.0    48.5    20.6
    2005 07 29    15 08.66   +03 03.4    0.869    1.419    97.4    45.2    20.9
    2005 08 08    15 39.72   -00 05.7    0.984    1.493    96.7    42.4    21.2
    2005 08 18    16 07.93   -02 50.6    1.110    1.568    95.1    40.0    21.5
    2005 08 28    16 34.01   -05 11.4    1.248    1.643    92.8    37.9    21.8
    
    Timothy B. Spahr             (C) Copyright 2005 MPC           M.P.E.C. 2005-N32
    

    Read MPEC 2005-N31 Read MPEC 2005-N33


    MPEC number:

    Enter an MPEC number in one of the following forms:

    • 1997-B01 (the full form)
    • J97B01 (the packed version of the full form)
    • B01 (the abbreviated form)